DAL1772 SKBO-SKRG

Flight info

Callsign DAL1772
Flight time 0h 29m
Altitude 22000
Route TOBKI1S VASIL W36 NIRSO NIRSO3C
Aircraft A339/H-SADE1E2E3GHIJ3J5M1P2RWXY/LB2D1

Departure

Time 2026-04-25 02:38
Airport El Dorado International Airport (SKBO)

Arrival

Time 2026-04-25 03:08
Airport Jose Maria Córdova International Airport (SKRG)
Time Latitude Longitude Altitude Speed Heading
2026-04-25 01:12 4.69696 -74.14404 8338 ft 0 kts 32°
2026-04-25 01:56 4.69692 -74.14406 8365 ft 2 kts 33°
2026-04-25 01:56 4.69684 -74.14412 8366 ft 1 kts 42°
2026-04-25 01:56 4.69681 -74.14414 8366 ft 1 kts 44°
2026-04-25 01:57 4.69675 -74.14420 8366 ft 0 kts 50°
2026-04-25 01:58 4.69667 -74.14428 8366 ft 3 kts 21°
2026-04-25 01:58 4.69649 -74.14431 8366 ft 3 kts 330°
2026-04-25 01:58 4.69639 -74.14425 8366 ft 0 kts 300°
2026-04-25 02:06 4.69640 -74.14427 8365 ft 2 kts 299°
2026-04-25 02:06 4.69652 -74.14448 8361 ft 5 kts 300°
2026-04-25 02:06 4.69675 -74.14483 8371 ft 7 kts 305°
2026-04-25 02:06 4.69709 -74.14528 8366 ft 9 kts 308°
2026-04-25 02:07 4.69748 -74.14577 8365 ft 9 kts 308°
2026-04-25 02:07 4.69784 -74.14624 8365 ft 8 kts 307°
2026-04-25 02:07 4.69820 -74.14665 8365 ft 7 kts 315°
2026-04-25 02:07 4.69849 -74.14702 8365 ft 6 kts 303°
2026-04-25 02:08 4.69868 -74.14737 8365 ft 5 kts 300°
2026-04-25 02:08 4.69889 -74.14768 8365 ft 6 kts 304°
2026-04-25 02:08 4.69917 -74.14808 8365 ft 9 kts 305°
2026-04-25 02:08 4.69937 -74.14866 8365 ft 8 kts 258°
2026-04-25 02:09 4.69903 -74.14900 8365 ft 8 kts 219°
2026-04-25 02:09 4.69858 -74.14940 8365 ft 9 kts 230°
2026-04-25 02:09 4.69857 -74.14971 8366 ft 3 kts 292°
2026-04-25 02:09 4.69873 -74.14999 8366 ft 6 kts 301°
2026-04-25 02:10 4.69906 -74.15046 8365 ft 10 kts 306°
2026-04-25 02:10 4.69955 -74.15111 8366 ft 13 kts 307°
2026-04-25 02:10 4.69978 -74.15140 8365 ft 14 kts 307°
2026-04-25 02:10 4.70042 -74.15226 8365 ft 16 kts 307°
2026-04-25 02:11 4.70113 -74.15320 8365 ft 18 kts 307°
2026-04-25 02:11 4.70190 -74.15422 8365 ft 19 kts 307°
2026-04-25 02:11 4.70263 -74.15518 8365 ft 15 kts 307°
2026-04-25 02:11 4.70322 -74.15597 8365 ft 14 kts 307°
2026-04-25 02:12 4.70375 -74.15667 8364 ft 12 kts 308°
2026-04-25 02:12 4.70422 -74.15726 8365 ft 10 kts 309°
2026-04-25 02:12 4.70462 -74.15775 8365 ft 8 kts 309°
2026-04-25 02:12 4.70491 -74.15815 8365 ft 6 kts 306°
2026-04-25 02:13 4.70515 -74.15848 8365 ft 5 kts 306°
2026-04-25 02:13 4.70534 -74.15874 8365 ft 4 kts 306°
2026-04-25 02:13 4.70549 -74.15894 8365 ft 3 kts 306°
2026-04-25 02:13 4.70567 -74.15919 8364 ft 6 kts 307°
2026-04-25 02:14 4.70604 -74.15969 8365 ft 11 kts 307°
2026-04-25 02:14 4.70656 -74.16039 8365 ft 14 kts 307°
2026-04-25 02:14 4.70718 -74.16121 8365 ft 15 kts 307°
2026-04-25 02:14 4.70774 -74.16194 8365 ft 13 kts 308°
2026-04-25 02:15 4.70825 -74.16261 8365 ft 11 kts 307°
2026-04-25 02:15 4.70869 -74.16320 8365 ft 10 kts 307°
2026-04-25 02:15 4.70907 -74.16370 8365 ft 8 kts 307°
2026-04-25 02:15 4.70939 -74.16411 8364 ft 7 kts 307°
2026-04-25 02:16 4.70945 -74.16420 8365 ft 0 kts 307°
2026-04-25 02:20 4.70957 -74.16435 8365 ft 5 kts 307°
2026-04-25 02:21 4.70982 -74.16468 8364 ft 7 kts 307°
2026-04-25 02:21 4.71011 -74.16506 8364 ft 7 kts 307°
2026-04-25 02:21 4.71042 -74.16546 8364 ft 7 kts 307°
2026-04-25 02:21 4.71073 -74.16587 8364 ft 7 kts 307°
2026-04-25 02:22 4.71098 -74.16619 8364 ft 0 kts 307°
2026-04-25 02:24 4.71101 -74.16623 8365 ft 2 kts 307°
2026-04-25 02:24 4.71116 -74.16643 8364 ft 5 kts 307°
2026-04-25 02:25 4.71142 -74.16678 8364 ft 7 kts 307°
2026-04-25 02:25 4.71172 -74.16718 8364 ft 7 kts 307°
2026-04-25 02:25 4.71185 -74.16736 8364 ft 0 kts 305°
2026-04-25 02:25 4.71190 -74.16742 8364 ft 2 kts 306°
2026-04-25 02:26 4.71195 -74.16751 8364 ft 0 kts 301°
2026-04-25 02:31 4.71197 -74.16755 8364 ft 3 kts 298°
2026-04-25 02:32 4.71197 -74.16789 8364 ft 6 kts 252°
2026-04-25 02:32 4.71164 -74.16823 8364 ft 7 kts 217°
2026-04-25 02:32 4.71145 -74.16837 8363 ft 0 kts 216°
2026-04-25 02:34 4.71136 -74.16843 8364 ft 6 kts 216°
2026-04-25 02:34 4.71078 -74.16878 8363 ft 11 kts 191°
2026-04-25 02:34 4.71020 -74.16873 8363 ft 5 kts 143°
2026-04-25 02:35 4.71005 -74.16854 8364 ft 3 kts 128°
2026-04-25 02:35 4.71003 -74.16851 8364 ft 0 kts 128°
2026-04-25 02:37 4.70965 -74.16803 8364 ft 28 kts 128°
2026-04-25 02:37 4.70741 -74.16510 8366 ft 78 kts 127°
2026-04-25 02:37 4.70319 -74.15950 8365 ft 123 kts 127°
2026-04-25 02:38 4.69717 -74.15156 8366 ft 162 kts 127°
2026-04-25 02:38 4.68986 -74.14196 8590 ft 177 kts 126°
2026-04-25 02:38 4.68340 -74.13090 9005 ft 185 kts 120°
2026-04-25 02:38 4.67419 -74.12259 9635 ft 179 kts 164°
2026-04-25 02:39 4.66214 -74.12373 10080 ft 181 kts 207°
2026-04-25 02:39 4.65258 -74.13262 10288 ft 198 kts 238°
2026-04-25 02:39 4.64590 -74.14524 10452 ft 212 kts 245°
2026-04-25 02:39 4.63949 -74.15900 10601 ft 224 kts 245°
2026-04-25 02:40 4.63257 -74.17354 10751 ft 238 kts 244°
2026-04-25 02:40 4.62495 -74.18902 10861 ft 257 kts 244°
2026-04-25 02:40 4.61708 -74.20561 11149 ft 268 kts 251°
2026-04-25 02:40 4.61219 -74.22397 11468 ft 279 kts 258°
2026-04-25 02:41 4.60833 -74.24360 11669 ft 295 kts 259°
2026-04-25 02:41 4.60452 -74.26433 11883 ft 310 kts 261°
2026-04-25 02:41 4.60211 -74.28647 11954 ft 329 kts 266°
2026-04-25 02:41 4.60075 -74.30976 11949 ft 349 kts 267°
2026-04-25 02:42 4.59949 -74.33494 11939 ft 361 kts 267°
2026-04-25 02:42 4.59820 -74.36015 11908 ft 362 kts 267°
2026-04-25 02:42 4.59770 -74.38506 11902 ft 362 kts 274°
2026-04-25 02:42 4.60281 -74.40957 11888 ft 360 kts 292°
2026-04-25 02:43 4.61511 -74.43132 11919 ft 359 kts 306°
2026-04-25 02:43 4.63045 -74.45134 12183 ft 363 kts 308°
2026-04-25 02:43 4.64621 -74.47111 12678 ft 364 kts 308°
2026-04-25 02:43 4.66197 -74.49092 13189 ft 364 kts 308°
2026-04-25 02:44 4.67752 -74.51055 14008 ft 353 kts 308°
2026-04-25 02:44 4.69262 -74.52969 14665 ft 348 kts 308°
2026-04-25 02:44 4.70764 -74.54877 15130 ft 349 kts 308°
2026-04-25 02:44 4.72279 -74.56804 15595 ft 353 kts 308°
2026-04-25 02:45 4.73807 -74.58742 16106 ft 356 kts 309°
2026-04-25 02:45 4.75506 -74.60506 16606 ft 358 kts 319°
2026-04-25 02:45 4.77472 -74.62061 17107 ft 361 kts 323°
2026-04-25 02:45 4.79499 -74.63562 17673 ft 361 kts 323°
2026-04-25 02:46 4.81530 -74.65057 18132 ft 364 kts 323°
2026-04-25 02:46 4.83577 -74.66567 18592 ft 367 kts 323°
2026-04-25 02:46 4.85620 -74.68123 18915 ft 372 kts 322°
2026-04-25 02:46 4.87670 -74.69722 19123 ft 373 kts 321°
2026-04-25 02:47 4.89712 -74.71321 19187 ft 372 kts 321°
2026-04-25 02:47 4.91755 -74.72924 19560 ft 371 kts 321°
2026-04-25 02:47 4.93664 -74.74671 19814 ft 374 kts 311°
2026-04-25 02:47 4.95153 -74.76816 20034 ft 378 kts 298°
2026-04-25 02:48 4.96349 -74.79160 20360 ft 379 kts 296°
2026-04-25 02:48 4.97505 -74.81558 20653 ft 381 kts 296°
2026-04-25 02:48 4.98659 -74.83958 20957 ft 383 kts 296°
2026-04-25 02:48 4.99825 -74.86375 21247 ft 385 kts 296°
2026-04-25 02:49 5.00978 -74.88755 21742 ft 371 kts 296°
2026-04-25 02:49 5.02088 -74.91044 21643 ft 361 kts 296°
2026-04-25 02:49 5.03182 -74.93296 21409 ft 358 kts 296°
2026-04-25 02:49 5.04259 -74.95511 21165 ft 358 kts 296°
2026-04-25 02:50 5.05346 -74.97746 21095 ft 355 kts 296°
2026-04-25 02:50 5.06430 -74.99973 21171 ft 355 kts 296°
2026-04-25 02:50 5.07512 -75.02199 21386 ft 355 kts 296°
2026-04-25 02:50 5.08595 -75.04425 21459 ft 355 kts 296°
2026-04-25 02:51 5.09681 -75.06658 21555 ft 356 kts 296°
2026-04-25 02:51 5.10771 -75.08900 21645 ft 359 kts 296°
2026-04-25 02:51 5.11869 -75.11157 21718 ft 361 kts 296°
2026-04-25 02:51 5.12969 -75.13420 21799 ft 362 kts 296°
2026-04-25 02:52 5.14073 -75.15692 21873 ft 362 kts 296°
2026-04-25 02:52 5.15216 -75.17942 21960 ft 362 kts 301°
2026-04-25 02:52 5.16674 -75.19998 22030 ft 362 kts 309°
2026-04-25 02:52 5.18316 -75.21909 22121 ft 362 kts 311°
2026-04-25 02:53 5.19987 -75.23790 22212 ft 360 kts 311°
2026-04-25 02:53 5.21650 -75.25657 22001 ft 357 kts 311°
2026-04-25 02:53 5.23301 -75.27516 21550 ft 357 kts 311°
2026-04-25 02:53 5.24935 -75.29358 21174 ft 357 kts 311°
2026-04-25 02:54 5.26580 -75.31216 20797 ft 355 kts 311°
2026-04-25 02:54 5.28217 -75.33066 20448 ft 353 kts 311°
2026-04-25 02:54 5.29844 -75.34906 20105 ft 352 kts 311°
2026-04-25 02:54 5.31467 -75.36737 19737 ft 350 kts 312°
2026-04-25 02:55 5.33252 -75.38386 19377 ft 349 kts 324°
2026-04-25 02:55 5.35377 -75.39514 19043 ft 342 kts 340°
2026-04-25 02:55 5.37655 -75.39996 18810 ft 328 kts 353°
2026-04-25 02:55 5.39871 -75.40160 18626 ft 311 kts 355°
2026-04-25 02:56 5.41971 -75.40266 18418 ft 294 kts 356°
2026-04-25 02:56 5.43990 -75.40366 17918 ft 287 kts 355°
2026-04-25 02:56 5.45973 -75.40468 17319 ft 284 kts 355°
2026-04-25 02:56 5.47947 -75.40574 16745 ft 282 kts 355°
2026-04-25 02:57 5.49902 -75.40680 16187 ft 280 kts 355°
2026-04-25 02:57 5.51834 -75.40786 15672 ft 276 kts 355°
2026-04-25 02:57 5.53732 -75.40891 15220 ft 270 kts 355°
2026-04-25 02:57 5.55569 -75.40992 14769 ft 266 kts 355°
2026-04-25 02:58 5.57403 -75.41093 14431 ft 265 kts 355°
2026-04-25 02:58 5.59269 -75.41198 14217 ft 272 kts 355°
2026-04-25 02:58 5.61168 -75.41302 14057 ft 272 kts 355°
2026-04-25 02:58 5.63053 -75.41407 13947 ft 271 kts 355°
2026-04-25 02:59 5.64935 -75.41512 13801 ft 271 kts 355°
2026-04-25 02:59 5.66812 -75.41617 13684 ft 270 kts 355°
2026-04-25 02:59 5.68689 -75.41723 13562 ft 269 kts 355°
2026-04-25 02:59 5.70558 -75.41827 13445 ft 269 kts 355°
2026-04-25 03:00 5.72425 -75.41929 13328 ft 268 kts 355°
2026-04-25 03:00 5.74287 -75.42032 13202 ft 264 kts 355°
2026-04-25 03:00 5.76079 -75.42130 13078 ft 250 kts 355°
2026-04-25 03:00 5.77771 -75.42192 12990 ft 241 kts 357°
2026-04-25 03:01 5.79454 -75.42208 12861 ft 242 kts 358°
2026-04-25 03:01 5.81124 -75.42212 12755 ft 235 kts 358°
2026-04-25 03:01 5.82749 -75.42215 12571 ft 233 kts 358°
2026-04-25 03:01 5.84357 -75.42218 12320 ft 227 kts 358°
2026-04-25 03:02 5.85926 -75.42220 11953 ft 224 kts 358°
2026-04-25 03:02 5.87487 -75.42220 11828 ft 226 kts 358°
2026-04-25 03:02 5.89044 -75.42220 11741 ft 227 kts 358°
2026-04-25 03:02 5.90622 -75.42225 11586 ft 227 kts 358°
2026-04-25 03:03 5.92215 -75.42232 11333 ft 229 kts 358°
2026-04-25 03:03 5.93808 -75.42238 11035 ft 228 kts 358°
2026-04-25 03:03 5.95367 -75.42243 10752 ft 219 kts 358°
2026-04-25 03:03 5.96378 -75.42246 10554 ft 211 kts 358°
2026-04-25 03:04 5.97810 -75.42251 10319 ft 200 kts 358°
2026-04-25 03:04 5.99141 -75.42255 10108 ft 187 kts 358°
2026-04-25 03:04 6.00403 -75.42260 9858 ft 175 kts 358°
2026-04-25 03:05 6.02777 -75.42269 9437 ft 170 kts 358°
2026-04-25 03:05 6.03903 -75.42273 9232 ft 170 kts 358°
2026-04-25 03:05 6.05084 -75.42278 9021 ft 169 kts 358°
2026-04-25 03:05 6.06261 -75.42277 8810 ft 169 kts 360°
2026-04-25 03:06 6.07436 -75.42259 8574 ft 169 kts
2026-04-25 03:06 6.08609 -75.42241 8351 ft 168 kts
2026-04-25 03:06 6.09777 -75.42234 8181 ft 166 kts 359°
2026-04-25 03:06 6.10921 -75.42233 8013 ft 166 kts 359°
2026-04-25 03:07 6.12096 -75.42250 7777 ft 172 kts 359°
2026-04-25 03:07 6.13303 -75.42283 7443 ft 176 kts 359°
2026-04-25 03:07 6.14531 -75.42292 7091 ft 176 kts 359°
2026-04-25 03:07 6.15719 -75.42304 6969 ft 161 kts 359°
2026-04-25 03:08 6.16652 -75.42311 6977 ft 96 kts 359°
2026-04-25 03:08 6.17016 -75.42372 6988 ft 21 kts 338°
2026-04-25 03:08 6.17104 -75.42412 6989 ft 0 kts 331°
2026-04-25 03:12 6.17107 -75.42414 6993 ft 1 kts 331°
2026-04-25 03:12 6.17111 -75.42416 6993 ft 1 kts 330°
2026-04-25 03:12 6.17116 -75.42418 6986 ft 1 kts 330°
2026-04-25 03:13 6.17128 -75.42426 6985 ft 4 kts 329°
2026-04-25 03:13 6.17160 -75.42445 6986 ft 7 kts 328°
2026-04-25 03:13 6.17185 -75.42477 6991 ft 3 kts 284°
2026-04-25 03:13 6.17184 -75.42505 6990 ft 5 kts 269°
2026-04-25 03:14 6.17182 -75.42553 6990 ft 8 kts 268°
2026-04-25 03:14 6.17169 -75.42605 6987 ft 6 kts 231°
2026-04-25 03:14 6.17139 -75.42614 6985 ft 6 kts 188°
2026-04-25 03:14 6.17080 -75.42620 6986 ft 11 kts 193°
2026-04-25 03:15 6.17006 -75.42667 6984 ft 15 kts 220°
2026-04-25 03:15 6.16933 -75.42748 6984 ft 15 kts 245°
2026-04-25 03:15 6.16903 -75.42835 6984 ft 10 kts 268°
2026-04-25 03:15 6.16917 -75.42858 6980 ft 1 kts 325°
2026-04-25 03:16 6.16925 -75.42861 6985 ft 2 kts 335°
2026-04-25 03:16 6.16938 -75.42866 6985 ft 0 kts 336°